Location: Gleizolles
(44.4833°N, 6.7667°E)
Time: 00:29:26
(UTC+00:00)

Vanguard 2 Rocket - Pass Details

Date: 22 June 2024
Orbit: 555 x 3302 km, 32.9° (Epoch: 24 July)

Event Time Altitude Azimuth Distance (km) Brightness Sun altitude
Rises 07:08:28 0° 275° (W) 7,132 10.9 32.6°
Reaches altitude 10° 07:14:11 10° 269° (W) 5,867 10.6 33.6°
Maximum altitude 07:28:27 35° 213° (SSW) 3,235 9.7 36.1°
Drops below altitude 10° 07:37:51 10° 152° (SSE) 3,844 10.6 37.8°
Sets 07:40:44 0° 143° (SE) 4,490 10.9 38.3°
